EW1145 Weather Reports


Display with metric or nautical units.
time (UTC)temp
F
wind
direction
speed
MPH
gust
MPH
rain 1hr
in
rain 24hr
in
rain mn
in
humidity
%
barometer
mb
20260510171519 63 92 1.0 7.0 0.00 0.00 0.00 60 1018.8
20260510170015 62 360 1.0 6.0 0.00 0.00 0.00 63 1018.5
20260510164523 61 196 0.0 0.0 0.00 0.00 0.00 68 1018.5
20260510163010 60 196 0.0 3.0 0.00 0.00 0.00 70 1018.6
20260510161509 59 196 0.0 2.0 0.00 0.00 0.00 73 1018.5
20260510160007 58 197 3.0 5.0 0.00 0.00 0.00 72 1018.4
20260510154505 58 298 0.0 1.0 0.00 0.00 0.00 74 1018.1
20260510153005 56 298 0.0 4.0 0.00 0.00 0.00 76 1018.2
20260510151506 55 301 0.0 4.0 0.00 0.00 0.00 78 1018.1
20260510150004 54 296 0.0 8.0 0.00 0.00 0.00 79 1018.1
20260510144503 54 13 0.0 4.0 0.00 0.00 0.00 82 1017.9
20260510143003 53 13 0.0 1.0 0.00 0.00 0.00 83 1017.6
20260510141601 52 13 0.0 0.0 0.00 0.00 0.00 84 1017.8
20260510134559 52 325 0.0 0.0 0.00 0.00 0.00 86 1017.4
20260510133057 52 325 0.0 0.0 0.00 0.00 0.00 86 1017.4
20260510131556 52 325 0.0 0.0 0.00 0.00 0.00 86 1017.1
20260510130054 52 325 0.0 0.0 0.00 0.00 0.00 86 1017.1
20260510124602 52 325 0.0 0.0 0.00 0.00 0.00 88 1016.9
20260510123056 52 325 0.0 0.0 0.00 0.00 0.00 89 1017.0
20260510121551 51 325 0.0 0.0 0.00 0.00 0.00 89 1016.9
20260510120049 52 325 0.0 0.0 0.00 0.00 0.00 89 1016.9
20260510114553 52 325 0.0 0.0 0.00 0.00 0.00 89 1017.0
20260510113046 52 325 0.0 0.0 0.00 0.00 0.00 88 1016.9
20260510111553 52 325 0.0 0.0 0.00 0.00 0.00 88 1016.8
20260510110048 53 325 0.0 0.0 0.00 0.00 0.00 87 1016.7
20260510104539 53 325 0.0 0.0 0.00 0.00 0.00 87 1016.4
20260510103040 53 325 0.0 0.0 0.00 0.00 0.00 87 1016.3
20260510101536 54 325 0.0 0.0 0.00 0.00 0.00 86 1016.1
20260510100043 54 325 0.0 0.0 0.00 0.00 0.00 86 1016.1
20260510094543 54 325 0.0 0.0 0.00 0.00 0.00 84 1015.7
20260510093034 56 325 0.0 0.0 0.00 0.00 0.00 83 1015.5
20260510091534 56 325 0.0 4.0 0.00 0.00 0.00 82 1015.7
20260510090033 56 340 0.0 3.0 0.00 0.00 0.00 83 1015.8
20260510084533 55 275 0.0 4.0 0.00 0.00 0.00 84 1015.8
20260510083044 55 153 0.0 0.0 0.00 0.00 0.00 82 1015.6
20260510081522 56 153 0.0 0.0 0.00 0.00 0.00 80 1015.4
20260510080025 57 153 0.0 0.0 0.00 0.00 0.00 79 1015.4
20260510074517 57 153 0.0 0.0 0.00 0.00 0.00 78 1015.4
20260510073020 58 153 0.0 0.0 0.00 0.00 0.00 76 1015.2
20260510071512 59 153 0.0 0.0 0.00 0.00 0.00 75 1015.3
20260510070009 60 153 0.0 0.0 0.00 0.00 0.00 73 1015.3
20260510064508 61 153 0.0 0.0 0.00 0.00 0.00 69 1015.2
20260510063009 63 153 0.0 2.0 0.00 0.00 0.00 66 1015.1
20260510061509 65 280 0.0 3.0 0.00 0.00 0.00 58 1014.9
20260510060009 66 300 0.0 3.0 0.00 0.00 0.00 58 1014.8
20260510054509 65 285 1.0 5.0 0.00 0.00 0.00 58 1014.9
20260510053006 65 296 0.0 5.0 0.00 0.00 0.00 58 1014.9
20260510051506 66 281 0.0 0.0 0.00 0.00 0.00 57 1014.9
20260510050006 67 281 0.0 3.0 0.00 0.00 0.00 55 1014.8
20260510044506 67 268 0.0 3.0 0.00 0.00 0.00 56 1014.9
20260510043005 68 286 1.0 5.0 0.00 0.00 0.00 55 1014.9
20260510041504 68 292 0.0 3.0 0.00 0.00 0.00 55 1014.7
20260510040004 69 278 0.0 6.0 0.00 0.00 0.00 52 1014.5
20260510034510 69 318 1.0 6.0 0.00 0.00 0.00 50 1014.4
20260510033004 70 25 0.0 5.0 0.00 0.00 0.00 48 1014.3
20260510031507 70 322 0.0 3.0 0.00 0.00 0.00 47 1014.2
20260510030006 71 315 0.0 4.0 0.00 0.00 0.00 45 1014.2
20260510024502 72 32 0.0 7.0 0.00 0.00 0.00 43 1014.1
20260510023001 73 303 0.0 3.0 0.00 0.00 0.00 41 1014.1
20260510021501 74 33 0.0 5.0 0.00 0.00 0.00 40 1014.0
20260510020101 75 22 1.0 4.0 0.00 0.00 0.00 40 1014.0
20260510014601 75 22 0.0 6.0 0.00 0.00 0.00 44 1014.1
20260510013104 78 42 0.0 4.0 0.00 0.00 0.00 40 1014.2
20260510013001 78 56 0.0 4.0 0.00 0.00 0.00 39 1014.2
20260510011559 80 319 0.0 2.0 0.00 0.00 0.00 25 1014.0
20260510010058 80 312 0.0 1.0 0.00 0.00 0.00 24 1014.2
20260510004553 79 336 0.0 5.0 0.00 0.00 0.00 27 1014.2
20260510003054 79 27 1.0 4.0 0.00 0.00 0.00 25 1014.4
20260510001551 79 27 0.0 0.0 0.00 0.00 0.00 27 1014.4
20260510000050 79 46 0.0 6.0 0.00 0.00 0.00 29 1014.5
20260509234550 78 46 0.0 1.0 0.00 0.00 0.00 29 1014.7
20260509233046 78 97 0.0 6.0 0.00 0.00 0.00 27 1014.8
20260509231545 78 68 1.0 7.0 0.00 0.00 0.00 26 1015.0
20260509230042 78 144 0.0 7.0 0.00 0.00 0.00 28 1015.2
20260509224542 78 129 0.0 4.0 0.00 0.00 0.00 31 1015.4
20260509223038 78 320 1.0 7.0 0.00 0.00 0.00 28 1015.7
20260509221535 79 23 1.0 6.0 0.00 0.00 0.00 28 1016.1
20260509220031 78 281 0.0 7.0 0.00 0.00 0.00 29 1016.5
20260509214527 77 355 1.0 8.0 0.00 0.00 0.00 29 1016.7
20260509213024 76 23 0.0 6.0 0.00 0.00 0.00 33 1016.8
20260509211522 75 350 2.0 8.0 0.00 0.00 0.00 34 1017.0
20260509210022 76 47 1.0 5.0 0.00 0.00 0.00 34 1017.2
20260509204520 75 291 1.0 5.0 0.00 0.00 0.00 40 1017.3
20260509203013 73 28 0.0 5.0 0.00 0.00 0.00 41 1017.4
20260509201511 74 105 0.0 6.0 0.00 0.00 0.00 38 1017.7
20260509200009 73 339 0.0 7.0 0.00 0.00 0.00 41 1018.0
20260509194504 71 319 0.0 7.0 0.00 0.00 0.00 45 1018.2
20260509193059 69 34 2.0 6.0 0.00 0.00 0.00 48 1018.5
20260509191557 67 115 0.0 7.0 0.00 0.00 0.00 56 1018.7
20260509190055 67 115 3.0 7.0 0.00 0.00 0.00 55 1018.8
20260509184556 67 348 3.0 6.0 0.00 0.00 0.00 55 1019.1
20260509183052 67 311 0.0 5.0 0.00 0.00 0.00 58 1019.2
20260509181558 66 136 2.0 5.0 0.00 0.00 0.00 57 1019.4
20260509180048 65 101 0.0 5.0 0.00 0.00 0.00 61 1019.4
20260509174543 64 28 1.0 4.0 0.00 0.00 0.00 65 1019.6
20260509173044 63 355 0.0 4.0 0.00 0.00 0.00 64 1019.8